Regional Weather Roundup
Issued by NWS

Home | Current Version | Previous Version | Text Only | Print | Product List | Glossary Off
Versions: 1 2 3 4 5 6 7 8 9 10 11 12 13 14 15 16 17 18 19 20 21 22 23 24 25 26 27

000
ASUS45 KSLC 292210
RWRUT

UTAH REGIONAL WEATHER ROUNDUP
NATIONAL WEATHER SERVICE SALT LAKE CITY UT
400 PM MDT THU SEP 29 2016

UTZ001>011-023>025-292300-

NORTHERN UTAH

CITY           SKY/WX    TMP DP  RH WIND       PRES   REMARKS
BRIGHAM CITY     N/A     72  49  44 SE9       30.21F
DUGWAY         PTSUNNY   74  43  32 S13G18    30.19F
HILL AFB       LGT RAIN  68  48  49 NW7       30.23F
LOGAN          PTSUNNY   68  52  56 SE5       30.22F
OGDEN          PTSUNNY   68  51  54 NE7       30.21F
PROVO AIRPORT  MOSUNNY   78  44  29 CALM      30.20F
SALT LAKE CITY PTSUNNY   70  54  56 NW20      30.18F
VERNAL         CLOUDY    63  53  70 E3        30.34F
WENDOVER       SUNNY    N/A N/A N/A MISG        N/A
HEBER CITY     MOSUNNY   75  39  27 SW15G21   30.23F
WEST JORDAN    PTSUNNY   69  51  52 NW26      30.20F

$$

UTZ012>022-026-027-292300-

SOUTHERN/CENTRAL UTAH

CITY           SKY/WX    TMP DP  RH WIND       PRES   REMARKS
BLANDING       CLOUDY    57  55  93 SE10      30.49F
BRYCE CANYON   TSTM      49  44  83 S5        30.45S
CEDAR CITY     PTSUNNY   74  45  35 S8G20     30.28F
DELTA          PTSUNNY   77  37  24 SW15G22   30.21F
MILFORD        MOSUNNY   76  43  30 S12G22    30.22F
MOAB/CYNLANDS  CLOUDY    70  56  61 SE16      30.28F
PRICE          TSTM      59  53  80 E6        30.35S
ST GEORGE      PTCLDY    82  52  34 E12       30.16F

$$

REGIONAL REPORTS     COLORADO/ARIZONA

CITY           SKY/WX    TMP DP  RH WIND       PRES   REMARKS
CRAIG, CO      CLOUDY    59  52  77 NW3       30.41F
GRAND JUNCTION CLOUDY    63  55  75 CALM      30.34F
RIFLE          CLOUDY    66  51  58 W7        30.36S
MONTROSE       CLOUDY    64  46  52 N10       30.39F
CORTEZ         LGT RAIN  57  54  89 CALM      30.44F
PAGE, AZ       CLOUDY    70  59  68 NE9       30.27F
GRAND CANYON   CLOUDY    65  51  60 E6        30.38F
KINGMAN        PTSUNNY   85  48  27 SW10G21   30.16F
FLAGSTAFF      CLOUDY    59  50  72 CALM      30.41F

$$

REGIONAL REPORTS    NEVADA/IDAHO/WYOMING

CITY           SKY/WX    TMP DP  RH WIND       PRES   REMARKS
LAS VEGAS, NV  MOSUNNY   89  46  22 E10       30.06F
ELY            PTSUNNY   70  41  34 E6        30.28F
ELKO           MOSUNNY   80  35  19 VRB5      30.14F
POCATELLO, ID  PTSUNNY   73  46  38 S21       30.15
BURLEY         SUNNY     77  44  30 S6        30.09F
EVANSTON, WY   CLOUDY    68  38  33 W17       30.33S
ROCK SPRINGS   MOSUNNY   65  46  50 S20       30.32F

$$




USA.gov is the U.S. government's official web portal to all federal, state and local government web resources and services.